星链-3091 (STARLINK-3091 )

导读 | 星芒AI

STARLINK-3091 是 SpaceX Starlink 卫星互联网项目中的一颗低轨卫星,属于第三代星链卫星(v1.5 或 v2 构型)。它于2023年发射,旨在为全球用户提供高速、低延迟的互联网服务。该卫星采用先进推进系统和激光通信技术,支持更高效的网络连接。作为 Starlink 项目的一部分,STARLINK-3091 有助于扩大覆盖范围,提升服务质量,特别是在偏远和网络基础设施薄弱的地区。其部署进一步推动了 SpaceX 构建全球宽带网络的目标。

基本信息
目录编号:
49172
目录名称:
STARLINK-3091
国际标识:
2021-082AU
轨道中心:
EARTH
卫星名称:
星链-3091
卫星全名:
星链-3091 (STARLINK-3091 )
卫星状态:
已陨落 最后检测时间 2025-05-27
发射日期:
2021-09-14 UTC
国别 :
美国 (US)
星等 :
--
轨道信息
数据来源 国际轨道数据
星历时间: 2025-05-27T12:33:20+0800
轨道信息已过期157天
半长轴: 6523.986km
偏心率: 0.0012951
轨道倾角: 69.993°
近地点辐角 258.723°
升交点赤经 259.910°
平近点角 174.848°
近地点: 137.401km
远地点: 154.301km
周期: 87.404分钟
每日圈数: 16.475298
详细信息
固有亮度:
5
最大亮度:
2.5
卫星平台:
Starlink v1.5
覆盖范围:
全球
运营商:
太空探索技术公司
运营商所在国:
美国
制造商(研发单位):
太空探索技术公司
制造商所在国:
美国
使用方式:
暂无
卫星简介
星链(Starlink)计划是由太空探索技术公司(SpaceX)提出的一个巨型低轨卫星互联网星座项目,计划在2019年至2024年间在太空搭建由约1.2万颗卫星组成的“星链”网络,其中1584颗将部署在地球上空550千米处的近地轨道,并从2020年开始工作。该卫星仍在工作。